Harrisburg, PA

7:29 AM EDT on May 30, 2017 (GMT -0400)
Capital City

Weather History for KCXY - December, 2013

Change the Weather History Date:

Wednesday, December 25, 2013

  Actual Average Record
Temperature  
Mean Temperature 23 °F -  
Max Temperature 28 °F 36 °F 66 °F (1889)
Min Temperature 18 °F 23 °F -3 °F (1983)
Degree Days  
Heating Degree Days 42    
Moisture  
Dew Point 10 °F    
Average Humidity 56    
Maximum Humidity 68    
Minimum Humidity 43    
Precipitation  
Precipitation 0.00 in - - ()
Sea Level Pressure  
Sea Level Pressure 30.49 in    
Wind  
Wind Speed 7 mph (WSW)    
Max Wind Speed 12 mph    
Max Gust Speed -    
Visibility 10 miles    
Events      
Averages and records for this station are not official NWS values.
T = Trace of Precipitation, MM = Missing Value Source: NWS Daily Summary

Daily Weather History Graph

Daily Weather History Graph

Search for Another Location

Airport or City:

Trip Planner

Search our weather history database for the weather conditions in past years. The results will help you decide how hot, cold, wet, or windy it might be!

Date:

Astronomy

Dec. 25, 2013 Rise Set
Actual Time 7:28 AM EST 4:47 PM EST
Civil Twilight 6:57 AM EST 5:17 PM EST
Nautical Twilight 6:23 AM EST 5:52 PM EST
Astronomical Twilight 5:50 AM EST 6:25 PM EST
Moon No Moon Rise 11:50 AM EST (12/25)
Length of Visible Light 10h 20m
Length of Day
9h 18m
Waning Gibbous, 49% of the Moon is Illuminated
Dec 25
Waning Gibbous
Jan 1
New
Jan 7
First Quarter
Jan 15
Full
Jan 24
Last Quarter

Hourly Weather History & Observations

Time (EST) Temp. Windchill Dew Point Humidity Pressure Visibility Wind Dir Wind Speed Gust Speed Precip Events Conditions
12:56 AM 21.9 °F 10.4 °F 7.0 °F 53% 30.47 in 10.0 mi WNW 11.5 mph - N/A   Clear
1:56 AM 21.0 °F 12.4 °F 7.0 °F 55% 30.48 in 10.0 mi West 6.9 mph - N/A   Clear
2:56 AM 19.9 °F 12.1 °F 8.1 °F 60% 30.50 in 10.0 mi West 5.8 mph - N/A   Clear
3:56 AM 19.9 °F 9.3 °F 8.1 °F 60% 30.51 in 10.0 mi WNW 9.2 mph - N/A   Clear
4:56 AM 19.0 °F 10.0 °F 8.1 °F 62% 30.52 in 10.0 mi West 6.9 mph - N/A   Clear
5:56 AM 18.0 °F 11.1 °F 9.0 °F 68% 30.53 in 10.0 mi West 4.6 mph - N/A   Clear
6:56 AM 19.0 °F 12.3 °F 8.1 °F 62% 30.53 in 10.0 mi NW 4.6 mph - N/A   Clear
7:56 AM 19.9 °F 13.4 °F 9.0 °F 62% 30.54 in 10.0 mi NNW 4.6 mph - N/A   Partly Cloudy
8:56 AM 21.9 °F 14.5 °F 9.0 °F 58% 30.56 in 10.0 mi NNW 5.8 mph - N/A   Clear
9:56 AM 21.9 °F 14.5 °F 8.1 °F 55% 30.58 in 10.0 mi NW 5.8 mph - N/A   Clear
10:56 AM 24.1 °F 17.0 °F 9.0 °F 53% 30.57 in 10.0 mi NW 5.8 mph - N/A   Clear
11:56 AM 26.1 °F - 8.1 °F 47% 30.53 in 10.0 mi Calm Calm - N/A   Clear
12:56 PM 28.0 °F 21.7 °F 9.0 °F 45% 30.51 in 10.0 mi ENE 5.8 mph - N/A   Partly Cloudy
1:56 PM 28.0 °F 24.2 °F 8.1 °F 43% 30.49 in 10.0 mi Variable 3.5 mph - N/A   Clear
2:56 PM 27.0 °F 23.0 °F 10.9 °F 51% 30.48 in 10.0 mi Variable 3.5 mph - N/A   Clear
3:56 PM 27.0 °F 20.5 °F 10.0 °F 49% 30.48 in 10.0 mi SSE 5.8 mph - N/A   Clear
4:56 PM 27.0 °F 20.5 °F 10.0 °F 49% 30.47 in 10.0 mi SE 5.8 mph - N/A   Clear
5:56 PM 27.0 °F 19.5 °F 12.0 °F 53% 30.46 in 10.0 mi SE 6.9 mph - N/A   Clear
6:56 PM 27.0 °F 18.7 °F 12.0 °F 53% 30.45 in 10.0 mi ESE 8.1 mph - N/A   Clear
7:56 PM 26.1 °F 21.9 °F 14.0 °F 60% 30.45 in 10.0 mi East 3.5 mph - N/A   Clear
8:56 PM 27.0 °F 23.0 °F 15.1 °F 61% 30.44 in 10.0 mi ESE 3.5 mph - N/A   Clear
9:56 PM 27.0 °F 18.7 °F 12.9 °F 56% 30.43 in 10.0 mi SE 8.1 mph - N/A   Clear
10:56 PM 27.0 °F 18.7 °F 14.0 °F 58% 30.41 in 10.0 mi SE 8.1 mph - N/A   Partly Cloudy
11:56 PM 26.1 °F 17.6 °F 15.1 °F 63% 30.38 in 10.0 mi SE 8.1 mph - N/A   Clear